This demonstration page uses our WeatherBlox Daily Observations layout. Learn more.

39.01783, -85.05884

Hourly Observations for July 14, 2019

Temp ( °F °C ) Dew Point ( °F °C ) Humidity (%) Winds ( mph kmh ) Pressure ( in mb ) Visibility ( mi km ) Precip ( " mm )
12:52 am 00:52 Clear 71 21.7 63 17.2 76 76 SW 5 7 30.06 1018 10 16.09344 0 0
1:52 am 01:52 Clear 72 22.2 60 15.6 66 66 SW 3 6 30.06 1018 10 16.09344 0 0
2:52 am 02:52 Clear 69 20.6 61 16.1 76 76 Calm 30.06 1018 10 16.09344 0 0
3:52 am 03:52 Clear 67 19.4 61 16.1 81 81 Calm 30.03 1017 10 16.09344 0 0
4:52 am 04:52 Clear 65 18.3 61 16.1 87 87 SSW 5 7 30.03 1017 10 16.09344 0 0
5:52 am 05:52 Mostly Clear 67 19.4 62 16.7 84 84 Calm 30.06 1018 10 16.09344 0 0
6:52 am 06:52 Mostly Cloudy 66 18.9 61 16.1 84 84 WSW 3 6 30.09 1019 10 16.09344 0 0
7:52 am 07:52 Partly Cloudy 73 22.8 63 17.2 71 71 Calm 30.09 1019 10 16.09344 0 0
8:52 am 08:52 Partly Cloudy 77 25 63 17.2 62 62 NNW 8 13 30.12 1020 10 16.09344 0 0
9:52 am 09:52 Partly Cloudy 82 27.8 64 17.8 55 55 SSW 5 7 30.12 1020 10 16.09344 0 0
10:52 am 10:52 Mostly Sunny 84 28.9 65 18.3 53 53 SSW 8 13 30.09 1019 10 16.09344 0 0
11:52 am 11:52 Partly Cloudy 86 30 62 16.7 45 45 SW 6 9 30.09 1019 10 16.09344 0 0
12:52 pm 12:52 Partly Cloudy 88 31.1 61 16.1 40 40 VRB 5 7 30.12 1020 10 16.09344 0 0
1:52 pm 13:52 Mostly Sunny 89 31.7 62 16.7 41 41 VRB 3 6 30.09 1019 10 16.09344 0 0
2:52 pm 14:52 Mostly Sunny 91 32.8 60 15.6 35 35 VRB 5 7 30.09 1019 10 16.09344 0 0
3:52 pm 15:52 Mostly Sunny 92 33.3 62 16.7 37 37 WNW 12 19 30.06 1018 10 16.09344 0 0
4:52 pm 16:52 Mostly Sunny 91 32.8 62 16.7 38 38 WSW 7 11 30.06 1018 10 16.09344 0 0
5:52 pm 17:52 Mostly Sunny 90 32.2 63 17.2 41 41 W 7 11 30.06 1018 10 16.09344 0 0
6:52 pm 18:52 Mostly Sunny 90 32.2 63 17.2 41 41 WSW 5 7 30.03 1017 10 16.09344 0 0
7:52 pm 19:52 Partly Cloudy 88 31.1 65 18.3 46 46 W 6 9 30.06 1018 10 16.09344 0 0
8:52 pm 20:52 Mostly Cloudy 86 30 66 18.9 51 51 NW 7 11 30.06 1018 10 16.09344 0 0
9:52 pm 21:52 Partly Cloudy 81 27.2 65 18.3 58 58 W 5 7 30.09 1019 10 16.09344 0 0
10:52 pm 22:52 Mostly Cloudy 81 27.2 66 18.9 61 61 N 3 6 30.09 1019 10 16.09344 0 0
11:52 pm 23:52 Partly Cloudy 73 22.8 66 18.9 79 79 SW 5 7 30.09 1019 10 16.09344 0 0

Powered by AerisWeather